Preview of NWS' New Version of Forecast
This preview is not operational and should not be used for support decisions.

Regional Weather Roundup (RWR)

Issued by National Weather Service (NWS)

                            
000
ASUS43 KMKX 170300
RWRWI 

WISCONSIN REGIONAL WEATHER ROUNDUP
NATIONAL WEATHER SERVICE MILWAUKEE/SULLIVAN WI
1000 PM CDT SUN JUN 16 2019

NOTE: "FAIR" INDICATES FEW OR NO CLOUDS BELOW 12,000 FEET WITH NO
SIGNIFICANT WEATHER AND/OR OBSTRUCTIONS TO VISIBILITY.

WIZ001-002-006>008-014>016-023>028-170400-
NORTHWEST WISCONSIN
  
CITY           SKY/WX    TMP DP  RH WIND       PRES   REMARKS
SUPERIOR ARPT  FAIR      45  44  96 NE6       29.97R                  
ASHLAND        CLOUDY    50  47  89 NE6       29.97S                  
HAYWARD        FAIR      52  47  83 E3        29.96R                  
SIREN          FAIR      61  49  63 CALM      29.94R                  
CUMBERLAND     FAIR      55  52  88 S3        29.95R                  
RICE LAKE      FAIR      60  55  85 SE5       29.96R                  
CHETEK         FAIR      57  54  91 CALM      29.95R                  
LADYSMITH      FAIR      58  53  81 CALM      29.97R                  
EAU CLAIRE     NOT AVBL                                               
MENOMONIE      FAIR      54  51  89 SE5       29.96R                  
NEW RICHMOND   FAIR      59  54  81 SE6       29.94S                  
OSCEOLA        FAIR      61  56  82 SE5       29.96R                  
$$
 
WIZ003>005-009-010-017-018-170400-
NORTH CENTRAL WISCONSIN
  
CITY           SKY/WX    TMP DP  RH WIND       PRES   REMARKS
MANITOWISH WTR FAIR      57  50  77 NE5       29.96R                  
ARBOR VITAE    FAIR      60  50  69 NE3       29.96R                  
WOODRUFF       FAIR      60  50  69 NE3       29.96R                  
RHINELANDER    FAIR      61  49  64 SW5       29.97R                  
EAGLE RIVER    FAIR      59  48  67 SE3       29.96R                  
LAND O LAKES   FAIR      56  48  72 NE3       29.98S                  
PHILLIPS       FAIR      56  52  84 CALM      29.96R                  
TOMAHAWK       FAIR      52  48  86 CALM      29.97R                  
MEDFORD        FAIR      52  49  89 CALM      29.97R                  
MERRILL        FAIR      56  51  81 CALM      29.97R                  
$$
 
WIZ029-030-035-036-043>047-170400-
CENTRAL WISCONSIN
  
CITY           SKY/WX    TMP DP  RH WIND       PRES   REMARKS
WAUSAU         FAIR      54  50  86 CALM      29.96R                  
MOSINEE        FAIR      52  50  93 CALM      29.99R                  
MARSHFIELD     CLOUDY    56  51  84 CALM      29.97R                  
STEVENS POINT  CLOUDY    55  55  99 CALM      29.97R                  
WAUPACA        CLOUDY    58  54  89 CALM      29.98R                  
WAUTOMA        CLOUDY    56  53  90 CALM      29.98R                  
WISC RAPIDS    CLOUDY    57  54  89 CALM      29.97R                  
CAMP DOUGLAS   NOT AVBL                                               
$$
 
WIZ011>013-019>022-031-037>040-048>050-170400-
NORTHEAST WISCONSIN
  
CITY           SKY/WX    TMP DP  RH WIND       PRES   REMARKS
ANTIGO         FAIR      52  51  96 CALM      29.99R                  
SHAWANO        CLOUDY    58  48  67 CALM      29.97R                  
OCONTO         FAIR      53  51  95 CALM      29.97R                  
STURGEON BAY   FAIR      51  49  92 CALM      29.98R                  
GREEN BAY      CLOUDY    58  51  78 SE3       29.98R                  
MANITOWOC      MOCLDY    52  50  93 MISG      29.99R                  
APPLETON       MOCLDY    57  45  62 CALM      29.96R                  
CLINTONVILLE   CLOUDY    58  52  80 CALM      29.98R                  
OSHKOSH        CLOUDY    57  47  69 NE5       29.97R                  
$$
 
WIZ032>034-041-042-053>061-170400-
SOUTHWEST WISCONSIN
  
CITY           SKY/WX    TMP DP  RH WIND       PRES   REMARKS
LA CROSSE      CLOUDY    61  53  75 E7        29.95R                  
SPARTA         CLOUDY    56  51  84 CALM      29.97R                  
VIROQUA        CLOUDY    56  56 100 E3        29.97R                  
BOSCOBEL       CLOUDY    60  54  80 CALM      29.97R                  
PRAIRIE DU CHI CLOUDY    61  55  82 NE6       29.96R                  
PLATTEVILLE    CLOUDY    58  58 100 NE5       29.97R                  
$$

WIZ056-057-062-063-064-067-068-170400-
SOUTH CENTRAL WISCONSIN
  
CITY           SKY/WX    TMP DP  RH WIND       PRES   REMARKS
REEDSBURG      CLOUDY    55  49  79 CALM      29.97R                  
BARABOO/DELLS  CLOUDY    55  49  80 CALM      29.97R                  
LONE ROCK      NOT AVBL                                               
MINERAL POINT  CLOUDY    59  59 100 CALM      29.97R                  
MADISON        CLOUDY    59  51  75 NE5       29.96R                  
MIDDLETON      CLOUDY    59  51  76 NE5       29.97R                  
WATERTOWN      CLOUDY    57  52  84 E6        29.96R                  
MONROE         CLOUDY    59  57  93 CALM      29.96R                  
JANESVILLE     CLOUDY    59  50  72 E8        29.96R                  
$$
 
WIZ051-052-058>065-066-070>072-170400-
SOUTHEAST WISCONSIN
  
CITY           SKY/WX    TMP DP  RH WIND       PRES   REMARKS
MILWAUKEE      CLOUDY    53  48  83 N8        29.96R                  
WAUKESHA       CLOUDY    52  46  82 E5        29.97R                  
MILWAUKEE/TIMM CLOUDY    54  46  76 NE7       29.97R                  
RACINE         CLOUDY    51  47  86 N10       29.97R                  
KENOSHA        CLOUDY    55  52  89 N5        29.96R                  
FOND DU LAC    CLOUDY    58  48  69 E3        29.98R                  
SHEBOYGAN      CLOUDY    55  49  80 E3        29.97R                  
WEST BEND      CLOUDY    54  50  87 NE5       29.96R                  
JUNEAU         CLOUDY    56  49  79 NE8       29.97R                  
$$

LSZ147-162-170400-
LAKE SUPERIOR
  
STATION/POSITION TIME  TEMP    WIND        PRES    WAVE
                       AIR SEA DIR/SP/G            HT/PER
                 (UTC) (F)     (DEG/KT/KT) (MB)    (FT/S)
W MID LAKE BUOY  0150   42 38   50/  8/ 10 1015.3F   1
$$
 
LMZ867-665-643>646-170400-
LAKE MICHIGAN
  
STATION/POSITION TIME  TEMP    WIND        PRES    WAVE
                       AIR SEA DIR/SP/G            HT/PER
                 (UTC) (F)     (DEG/KT/KT) (MB)    (FT/S)
S GREEN BAY BUOY 0230   59 61  150/  2/  4 1014.9R
N MID LAKE BUOY  0240   43     330/  6/  6 1015.3
NORTHPORT PIER   0240   50      CALM  /  1 1014.6R
SHEBOYGAN LAKESH 0200   51      20/  9/ 10 1014.4R
ATWATER BUOY     0230   49 50   30/ 12/ 16 1014.3R   2/16
MILWAUKEE LAKESH 0230   51      20/  9/ 12   N/A
S MID LAKE BUOY  0240   47      20/  6/  8 1014.2R
KENOSHA   LAKESH 0200   54      10/ 10/ 12 1013.5
$$

TC  - TEMPERATURE IN CELSIUS
VSB - VISIBILITY IN STATUTE MILES
WCI - WIND CHILL INDEX
HX  - HEAT INDEX